Time,TemperatureF,DewpointF,PressureIn,WindDirection,WindDirectionDegrees,WindSpeedMPH,WindSpeedGustMPH,Humidity,HourlyPrecipIn,Conditions,Clouds,dailyrainin,SoftwareType,DateUTC
2017-12-18 00:00:00,41.8,36.1,30.14,SSW,211,6.0,11.0,80,0.00,,OVC013,-99.99,VWS V12.06,2017-12-18 05:00:00,
2017-12-18 00:30:00,40.9,36.1,30.14,SW,220,7.0,14.0,83,0.00,,OVC013,-99.99,VWS V12.06,2017-12-18 05:30:00,
2017-12-18 01:00:00,43.7,38.9,30.12,SW,224,5.0,10.0,83,0.00,,OVC011,-99.99,VWS V12.06,2017-12-18 06:00:00,
2017-12-18 01:30:00,43.6,39.4,30.13,SSW,212,7.0,8.0,85,0.00,,OVC011,-99.99,VWS V12.06,2017-12-18 06:30:00,
2017-12-18 02:00:00,44.5,41.2,30.13,SSW,200,6.0,7.0,88,0.00,,BKN019,-99.99,VWS V12.06,2017-12-18 07:00:00,
2017-12-18 02:30:00,44.5,41.8,30.14,SW,227,5.0,13.0,90,0.00,,BKN019,-99.99,VWS V12.06,2017-12-18 07:30:00,
2017-12-18 02:32:00,44.4,41.4,30.13,SW,232,4.0,9.0,89,0.00,,BKN019,-99.99,VWS V12.06,2017-12-18 07:32:00,
2017-12-18 03:00:00,44.0,41.0,30.13,SW,235,5.0,6.0,89,0.00,,BKN027,-99.99,VWS V12.06,2017-12-18 08:00:00,
2017-12-18 03:30:00,44.9,41.9,30.14,SW,217,4.0,7.0,89,0.00,,BKN027,-99.99,VWS V12.06,2017-12-18 08:30:00,
2017-12-18 04:00:00,45.3,42.3,30.14,SW,223,9.0,9.0,89,0.00,,BKN027,-99.99,VWS V12.06,2017-12-18 09:00:00,
2017-12-18 04:30:00,45.5,41.9,30.12,SW,220,3.0,5.0,87,0.00,,BKN027,-99.99,VWS V12.06,2017-12-18 09:30:00,
2017-12-18 05:00:00,44.8,41.5,30.12,SW,223,6.0,8.0,88,0.00,,OVC015,-99.99,VWS V12.06,2017-12-18 10:00:00,
2017-12-18 05:30:00,45.1,41.5,30.12,West,268,10.0,11.0,87,0.00,,OVC015,-99.99,VWS V12.06,2017-12-18 10:30:00,
2017-12-18 06:00:00,44.3,41.0,30.13,West,281,3.0,7.0,88,0.00,,OVC015,-99.99,VWS V12.06,2017-12-18 11:00:00,
2017-12-18 06:30:00,45.5,42.5,30.13,NNW,345,0.0,2.0,89,0.00,,OVC015,-99.99,VWS V12.06,2017-12-18 11:30:00,
2017-12-18 07:00:00,46.3,43.0,30.13,NNE,21,0.0,1.0,88,0.00,,OVC011,-99.99,VWS V12.06,2017-12-18 12:00:00,
2017-12-18 07:30:00,45.8,42.5,30.14,South,181,2.0,3.0,88,0.00,,OVC011,-99.99,VWS V12.06,2017-12-18 12:30:00,
2017-12-18 08:02:00,44.9,43.0,30.01,West,268,9.0,10.0,93,0.00,,SCT011,-99.99,VWS V12.06,2017-12-18 13:02:00,
2017-12-18 09:00:00,46.3,43.0,30.15,West,274,3.0,4.0,88,0.00,,SCT018,-99.99,VWS V12.06,2017-12-18 14:00:00,
2017-12-18 09:30:00,47.6,43.9,30.15,South,180,2.0,7.0,87,0.00,,SCT018,-99.99,VWS V12.06,2017-12-18 14:30:00,
2017-12-18 10:00:00,49.9,44.3,30.16,ESE,119,5.0,5.0,81,0.00,,BKN020,-99.99,VWS V12.06,2017-12-18 15:00:00,
2017-12-18 10:02:00,50.0,44.4,30.15,ESE,116,0.0,1.0,81,0.00,,BKN020,-99.99,VWS V12.06,2017-12-18 15:02:00,
2017-12-18 10:30:00,51.9,43.9,30.16,SSW,198,2.0,4.0,74,0.00,,BKN020,-99.99,VWS V12.06,2017-12-18 15:30:00,
2017-12-18 11:00:00,54.1,43.4,30.15,West,262,5.0,22.0,67,0.00,,SCT027,-99.99,VWS V12.06,2017-12-18 16:00:00,
2017-12-18 11:30:00,56.3,43.9,30.13,SW,234,3.0,6.0,63,0.00,,SCT027,-99.99,VWS V12.06,2017-12-18 16:30:00,
2017-12-18 12:02:00,50.4,45.1,29.98,West,261,5.0,11.0,82,0.00,,CLR,-99.99,VWS V12.06,2017-12-18 17:02:00,
2017-12-18 12:30:00,57.1,44.6,30.10,South,190,4.0,5.0,63,0.00,,CLR,-99.99,VWS V12.06,2017-12-18 17:30:00,
2017-12-18 13:00:00,57.3,43.1,30.09,SSW,202,2.0,8.0,59,0.00,,CLR,-99.99,VWS V12.06,2017-12-18 18:00:00,
2017-12-18 14:00:00,57.1,40.2,30.08,WNW,301,8.0,20.0,53,0.00,,CLR,-99.99,VWS V12.06,2017-12-18 19:00:00,
2017-12-18 14:30:00,55.4,42.2,30.08,West,268,8.0,15.0,61,0.00,,CLR,-99.99,VWS V12.06,2017-12-18 19:30:00,
2017-12-18 15:00:00,54.3,41.6,30.07,WSW,240,7.0,16.0,62,0.00,,CLR,-99.99,VWS V12.06,2017-12-18 20:00:00,
2017-12-18 15:30:00,55.5,42.7,30.07,SSW,211,6.0,9.0,62,0.00,,CLR,-99.99,VWS V12.06,2017-12-18 20:30:00,
2017-12-18 16:00:00,55.7,41.6,30.06,SW,234,9.0,14.0,59,0.00,,CLR,-99.99,VWS V12.06,2017-12-18 21:00:00,
2017-12-18 16:30:00,55.4,39.5,30.06,SW,217,9.0,15.0,55,0.00,,CLR,-99.99,VWS V12.06,2017-12-18 21:30:00,
2017-12-18 17:00:00,54.2,38.4,30.06,SW,227,7.0,14.0,55,0.00,,CLR,-99.99,VWS V12.06,2017-12-18 22:00:00,
2017-12-18 18:00:00,52.1,37.3,30.07,WSW,240,11.0,14.0,57,0.00,,CLR,-99.99,VWS V12.06,2017-12-18 23:00:00,
2017-12-18 18:30:00,51.7,36.1,30.07,WSW,244,18.0,21.0,55,0.00,,CLR,-99.99,VWS V12.06,2017-12-18 23:30:00,